Regional Weather Roundup
Issued by NWS

Home | Current Version | Previous Version | Text Only | Print | Product List | Glossary On
Versions: 1 2 3 4 5 6 7 8 9 10 11 12 13 14 15 16 17 18 19 20 21 22 23 24 25 26 27 28 29 30 31 32 33 34 35 36 37 38 39 40 41 42 43 44 45 46 47 48 49 50
000
ASUS43 KLSX 290907
RWRMO

WEATHER SUMMARY FOR MISSOURI
NATIONAL WEATHER SERVICE SPRINGFIELD MO
300 AM CST SAT NOV 29 2014

NOTE: "FAIR" INDICATES FEW OR NO CLOUDS BELOW 12,000 FEET WITH NO
       SIGNIFICANT WEATHER AND/OR OBSTRUCTIONS TO VISIBILITY.
       CURRENT SKY AND/OR WEATHER CONDITIONS ARE NOT AVAILABLE FOR
       CHILLICOTHE AND FARMINGTON.

MOZ001>031-035>038-043-044-053-054-291000-
...NORTHERN AND WESTERN MISSOURI...

CITY           SKY/WX    TMP DP  RH WIND       PRES   REMARKS
KANSAS CTY INT CLOUDY    51  42  71 SW14      29.67F
KANSAS C DTWN  CLOUDY    53  44  71 SW9       29.69S
LEE`S SUMMIT   CLOUDY    53  45  74 SW18      29.69F
ST JOSEPH      CLOUDY    47  38  71 SW7       29.66S
CHILLICOTHE      N/A     40  36  86 S7        29.67F
KIRKSVILLE     MOCLDY    45  39  79 SW10      29.68F

$$
MOZ066>068-077>081-088>096-101>105-291000-
...SOUTHWEST MISSOURI...

CITY           SKY/WX    TMP DP  RH WIND       PRES   REMARKS
SPRINGFIELD    CLOUDY    46  40  79 S10       29.81F
JOPLIN         CLOUDY    55  46  71 S15       29.79F

$$
MOZ032>034-039>042-045>050-055>058-069>072-291000-
...CENTRAL MISSOURI...

CITY           SKY/WX    TMP DP  RH WIND       PRES   REMARKS
COLUMBIA       MOCLDY    44  37  76 S10       29.75F
JEFFERSON CITY MOCLDY    47  37  68 SE6       29.76F
ROLLA          MOCLDY    46  38  73 S17       29.78F
SEDALIA        MOCLDY    54  45  71 SW23      29.71F
WHITEMAN AFB   MOCLDY    53  46  77 SW18G24   29.70F
WARRENSBURG    CLOUDY    52  45  76 S14       29.71S
OSAGE BEACH    CLOUDY    45  37  76 S8        29.78F

$$
MOZ051-052-059>065-291000-
...EAST CENTRAL MISSOURI...

CITY           SKY/WX    TMP DP  RH WIND       PRES   REMARKS
ST LOUIS INTL  PTCLDY    46  35  65 S10       29.83F
SPIRIT OF STL  MOCLDY    43  35  73 CALM      29.81F
ST CHARLES     PTCLDY    34  33  96 E7        29.82F WCI  28

$$
MOZ072>076-082>087-097>100-106>115-291000-
...SOUTH CENTRAL AND SOUTHEAST MISSOURI...

CITY           SKY/WX    TMP DP  RH WIND       PRES   REMARKS
CAPE GIRARDEAU PTCLDY    42  32  67 S9        29.97F
FARMINGTON     MOCLDY    43  36  75 S8        29.89F
POPLAR BLUFF   MOCLDY    43  33  68 S10       29.95F
WEST PLAINS    CLOUDY    45  38  76 S8        29.89F

$$


USA.gov is the U.S. government's official web portal to all federal, state and local government web resources and services.